This demonstration page uses our WeatherBlox Daily Observations layout. Learn more.

Left ArrowRight Arrow

Hourly Observations for May 9, 2017

Temp ( °F °C ) Dew Point ( °F °C ) Humidity (%) Winds ( mph kmh ) Pressure ( in mb ) Visibility ( mi km ) Precip ( " mm )
12:52 am 00:52 Clear 61 16.1 55 12.8 81 81 SSW 8 13 29.96 1015 10 16 0.00 0.00
1:52 am 01:52 Clear 62 16.7 56 13.3 80 80 SSW 8 13 29.96 1015 10 16 0.00 0.00
2:52 am 02:52 Clear 62 16.7 55 12.8 78 78 SW 6 9 29.96 1015 10 16 0.00 0.00
3:52 am 03:52 Clear 62 16.7 55 12.8 78 78 WSW 5 7 29.98 1015 10 16 0.00 0.00
4:52 am 04:52 Clear 57 13.9 53 11.7 87 87 Calm 29.98 1015 10 16 0.00 0.00
5:52 am 05:52 Clear 57 13.9 53 11.7 87 87 S 6 9 29.98 1015 10 16 0.00 0.00
6:52 am 06:52 Sunny 58 14.4 55 12.8 90 90 SSW 8 13 30.00 1016 8 13 0.00 0.00
7:52 am 07:52 Sunny 66 18.9 58 14.4 75 75 SW 9 15 30.00 1016 10 16 0.00 0.00
8:52 am 08:52 Sunny 70 21.1 59 15 68 68 SW 12 19 30.00 1016 10 16 0.00 0.00
9:52 am 09:52 Sunny 73 22.8 60 15.6 64 64 SW 13 20 30.00 1016 10 16 0.00 0.00
10:52 am 10:52 Sunny 76 24.4 61 16.1 60 60 WSW 12 19 29.99 1016 10 16 0.00 0.00
11:52 am 11:52 Sunny 77 25 61 16.1 58 58 SW 10 17 29.98 1015 10 16 0.00 0.00
12:52 pm 12:52 Mostly Cloudy 77 25 61 16.1 58 58 SW 9 15 29.98 1015 10 16 0.00 0.00
1:52 pm 13:52 Mostly Sunny 80 26.7 61 16.1 52 52 W 7 11 29.96 1015 10 16 0.00 0.00
2:52 pm 14:52 Mostly Sunny 79 26.1 59 15 50 50 SW 12 19 29.94 1014 10 16 0.00 0.00
3:52 pm 15:52 Mostly Cloudy 81 27.2 59 15 47 47 SW 8 13 29.92 1013 10 16 0.00 0.00
4:52 pm 16:52 Partly Cloudy 79 26.1 60 15.6 52 52 SSW 9 15 29.91 1013 10 16 0.00 0.00
5:52 pm 17:52 Sunny 80 26.7 59 15 49 49 SSW 8 13 29.90 1012 10 16 0.00 0.00
6:52 pm 18:52 Sunny 79 26.1 60 15.6 52 52 SW 6 9 29.89 1012 10 16 0.00 0.00
7:52 pm 19:52 Sunny 74 23.3 61 16.1 64 64 SSW 5 7 29.89 1012 10 16 0.00 0.00
8:52 pm 20:52 Cloudy 72 22.2 61 16.1 68 68 SSW 6 9 29.89 1012 10 16 0.00 0.00
9:52 pm 21:52 Clear 69 20.6 60 15.6 73 73 SSW 7 11 29.91 1013 10 16 0.00 0.00
10:52 pm 22:52 Clear 67 19.4 60 15.6 79 79 SSW 7 11 29.91 1013 10 16 0.00 0.00
11:52 pm 23:52 Clear 69 20.6 59 15 70 70 S 6 9 29.91 1013 10 16 0.00 0.00

Powered by AerisWeather